Time,TemperatureF,DewpointF,PressureIn,WindDirection,WindDirectionDegrees,WindSpeedMPH,WindSpeedGustMPH,Humidity,HourlyPrecipIn,Conditions,Clouds,dailyrainin,SoftwareType,DateUTC
2013-10-24 00:00:00,41.0,37.0,29.70,West,276,1.0,6.0,86,0.00,,,0.00,weatherlink.com 1.10,2013-10-24 04:00:00,
2013-10-24 00:15:00,40.6,37.0,29.71,NW,319,2.0,6.0,86,0.00,,,0.00,weatherlink.com 1.10,2013-10-24 04:15:00,
2013-10-24 00:30:00,40.5,37.0,29.71,SW,231,2.0,7.0,86,0.00,,,0.00,weatherlink.com 1.10,2013-10-24 04:30:00,
2013-10-24 00:45:00,40.0,37.0,29.71,NNW,332,1.0,6.0,87,0.00,,,0.00,weatherlink.com 1.10,2013-10-24 04:45:00,
2013-10-24 01:00:00,39.6,36.0,29.72,NW,325,0.0,4.0,88,0.00,,,0.00,weatherlink.com 1.10,2013-10-24 05:00:00,
2013-10-24 01:15:00,39.5,36.0,29.72,WNW,294,1.0,5.0,88,0.00,,,0.00,weatherlink.com 1.10,2013-10-24 05:15:00,
2013-10-24 01:30:00,39.0,36.0,29.72,NW,321,1.0,3.0,89,0.00,,,0.00,weatherlink.com 1.10,2013-10-24 05:30:00,
2013-10-24 01:45:00,38.9,36.0,29.73,West,276,1.0,4.0,89,0.00,,,0.00,weatherlink.com 1.10,2013-10-24 05:45:00,
2013-10-24 02:00:00,39.1,36.0,29.72,NW,316,3.0,6.0,89,0.00,,,0.00,weatherlink.com 1.10,2013-10-24 06:00:00,
2013-10-24 02:15:00,39.4,36.0,29.73,NW,307,1.0,5.0,88,0.00,,,0.00,weatherlink.com 1.10,2013-10-24 06:15:00,
2013-10-24 02:30:00,38.8,36.0,29.73,SSW,212,0.0,4.0,88,0.00,,,0.00,weatherlink.com 1.10,2013-10-24 06:30:00,
2013-10-24 02:45:00,37.9,35.0,29.73,West,271,0.0,1.0,89,0.00,,,0.00,weatherlink.com 1.10,2013-10-24 06:45:00,
2013-10-24 03:00:00,36.3,34.0,29.74,SSW,193,0.0,1.0,91,0.00,,,0.00,weatherlink.com 1.10,2013-10-24 07:00:00,
2013-10-24 03:15:00,35.1,33.0,29.73,SSW,193,0.0,1.0,92,0.00,,,0.00,weatherlink.com 1.10,2013-10-24 07:15:00,
2013-10-24 03:30:00,34.5,33.0,29.74,ENE,61,0.0,1.0,94,0.00,,,0.00,weatherlink.com 1.10,2013-10-24 07:30:00,
2013-10-24 03:45:00,33.6,32.0,29.74,ENE,60,0.0,0.0,94,0.00,,,0.00,weatherlink.com 1.10,2013-10-24 07:45:00,
2013-10-24 04:00:00,33.7,33.0,29.74,West,273,1.0,2.0,96,0.00,,,0.00,weatherlink.com 1.10,2013-10-24 08:00:00,
2013-10-24 04:15:00,33.9,33.0,29.74,West,280,0.0,0.0,96,0.00,,,0.00,weatherlink.com 1.10,2013-10-24 08:15:00,
2013-10-24 04:30:00,32.9,32.0,29.74,West,279,0.0,0.0,95,0.00,,,0.00,weatherlink.com 1.10,2013-10-24 08:30:00,
2013-10-24 04:45:00,31.8,31.0,29.75,West,280,0.0,0.0,95,0.00,,,0.00,weatherlink.com 1.10,2013-10-24 08:45:00,
2013-10-24 05:00:00,31.0,30.0,29.75,West,280,0.0,1.0,96,0.00,,,0.00,weatherlink.com 1.10,2013-10-24 09:00:00,
2013-10-24 05:15:00,30.4,29.0,29.75,West,280,0.0,0.0,96,0.00,,,0.00,weatherlink.com 1.10,2013-10-24 09:15:00,
2013-10-24 05:31:00,30.1,29.0,29.76,West,280,0.0,0.0,97,0.00,,,0.00,weatherlink.com 1.10,2013-10-24 09:31:00,
2013-10-24 05:46:00,29.7,29.0,29.76,West,280,0.0,0.0,97,0.00,,,0.00,weatherlink.com 1.10,2013-10-24 09:46:00,
2013-10-24 06:01:00,29.1,28.0,29.76,West,280,0.0,0.0,97,0.00,,,0.00,weatherlink.com 1.10,2013-10-24 10:01:00,
2013-10-24 06:16:00,28.9,28.0,29.77,West,280,0.0,0.0,97,0.00,,,0.00,weatherlink.com 1.10,2013-10-24 10:16:00,
2013-10-24 06:31:00,28.3,28.0,29.77,West,280,0.0,-999.0,97,-99.99,,,0.00,weatherlink.com 1.10,2013-10-24 10:31:00,
2013-10-24 06:46:00,28.0,27.0,29.77,West,280,0.0,0.0,97,0.00,,,0.00,weatherlink.com 1.10,2013-10-24 10:46:00,
2013-10-24 07:01:00,27.7,27.0,29.78,West,280,0.0,0.0,97,0.00,,,0.00,weatherlink.com 1.10,2013-10-24 11:01:00,
2013-10-24 07:16:00,28.0,28.0,29.78,West,280,0.0,1.0,98,0.00,,,0.00,weatherlink.com 1.10,2013-10-24 11:16:00,
2013-10-24 07:31:00,28.1,28.0,29.79,West,280,0.0,0.0,98,0.00,,,0.00,weatherlink.com 1.10,2013-10-24 11:31:00,
2013-10-24 07:46:00,28.0,28.0,29.79,West,280,0.0,0.0,98,0.00,,,0.00,weatherlink.com 1.10,2013-10-24 11:46:00,
2013-10-24 08:01:00,28.4,28.0,29.79,West,280,0.0,0.0,98,0.00,,,0.00,weatherlink.com 1.10,2013-10-24 12:01:00,
2013-10-24 08:16:00,29.3,29.0,29.80,West,280,0.0,0.0,99,0.00,,,0.00,weatherlink.com 1.10,2013-10-24 12:16:00,
2013-10-24 08:31:00,31.5,31.0,29.80,East,98,0.0,1.0,99,0.00,,,0.00,weatherlink.com 1.10,2013-10-24 12:31:00,
2013-10-24 08:46:00,34.0,34.0,29.80,West,267,0.0,3.0,99,0.00,,,0.00,weatherlink.com 1.10,2013-10-24 12:46:00,
2013-10-24 11:47:00,47.5,33.0,29.80,WNW,301,4.0,9.0,57,0.00,,,0.00,weatherlink.com 1.10,2013-10-24 15:47:00,
2013-10-24 12:02:00,46.7,32.0,29.80,West,280,4.0,12.0,57,0.00,,,0.00,weatherlink.com 1.10,2013-10-24 16:02:00,
2013-10-24 12:17:00,46.5,32.0,29.79,North,4,4.0,12.0,57,0.00,,,0.00,weatherlink.com 1.10,2013-10-24 16:17:00,
2013-10-24 12:32:00,47.0,32.0,29.79,West,266,3.0,6.0,57,0.00,,,0.00,weatherlink.com 1.10,2013-10-24 16:32:00,
2013-10-24 12:47:00,47.4,32.0,29.78,West,263,2.0,6.0,55,0.00,,,0.00,weatherlink.com 1.10,2013-10-24 16:47:00,
2013-10-24 13:02:00,47.5,31.0,29.78,NNW,336,4.0,10.0,54,0.00,,,0.00,weatherlink.com 1.10,2013-10-24 17:02:00,
2013-10-24 13:17:00,48.1,32.0,29.77,WNW,302,2.0,9.0,54,0.00,,,0.00,weatherlink.com 1.10,2013-10-24 17:17:00,
2013-10-24 13:32:00,49.6,31.0,29.77,WNW,302,3.0,10.0,50,0.00,,,0.00,weatherlink.com 1.10,2013-10-24 17:32:00,
2013-10-24 13:47:00,50.3,31.0,29.76,NNW,335,3.0,14.0,48,0.00,,,0.00,weatherlink.com 1.10,2013-10-24 17:47:00,
2013-10-24 14:17:00,49.9,30.0,29.76,North,356,5.0,11.0,47,0.00,,,0.00,weatherlink.com 1.10,2013-10-24 18:17:00,
2013-10-24 14:32:00,50.3,31.0,29.76,NW,322,1.0,7.0,48,0.00,,,0.00,weatherlink.com 1.10,2013-10-24 18:32:00,
2013-10-24 14:47:00,50.3,31.0,29.76,NNW,328,2.0,6.0,47,0.00,,,0.00,weatherlink.com 1.10,2013-10-24 18:47:00,
2013-10-24 15:02:00,49.4,30.0,29.77,NW,306,3.0,8.0,47,0.00,,,0.00,weatherlink.com 1.10,2013-10-24 19:02:00,
2013-10-24 15:18:00,49.1,31.0,29.77,West,270,1.0,9.0,50,0.00,,,0.00,weatherlink.com 1.10,2013-10-24 19:18:00,
2013-10-24 15:32:00,49.1,29.0,29.77,West,269,1.0,6.0,47,0.00,,,0.00,weatherlink.com 1.10,2013-10-24 19:32:00,
2013-10-24 15:47:00,49.0,30.0,29.78,WNW,286,1.0,6.0,49,0.00,,,0.00,weatherlink.com 1.10,2013-10-24 19:47:00,
2013-10-24 16:02:00,48.8,29.0,29.78,WNW,294,2.0,6.0,47,0.00,,,0.00,weatherlink.com 1.10,2013-10-24 20:02:00,
2013-10-24 16:17:00,48.6,29.0,29.79,NW,314,3.0,9.0,47,0.00,,,0.00,weatherlink.com 1.10,2013-10-24 20:17:00,
2013-10-24 16:32:00,48.5,30.0,29.79,NNW,328,1.0,5.0,49,0.00,,,0.00,weatherlink.com 1.10,2013-10-24 20:32:00,
2013-10-24 16:47:00,48.4,30.0,29.79,WSW,246,3.0,6.0,49,0.00,,,0.00,weatherlink.com 1.10,2013-10-24 20:47:00,
2013-10-24 17:02:00,48.4,30.0,29.80,WNW,294,1.0,6.0,50,0.00,,,0.00,weatherlink.com 1.10,2013-10-24 21:02:00,
2013-10-24 17:17:00,48.2,30.0,29.80,WNW,296,2.0,7.0,50,0.00,,,0.00,weatherlink.com 1.10,2013-10-24 21:17:00,
2013-10-24 17:32:00,48.1,30.0,29.80,WSW,248,1.0,6.0,50,0.00,,,0.00,weatherlink.com 1.10,2013-10-24 21:32:00,
2013-10-24 17:47:00,47.9,30.0,29.81,North,4,3.0,7.0,50,0.00,,,0.00,weatherlink.com 1.10,2013-10-24 21:47:00,
2013-10-24 18:02:00,47.3,32.0,29.82,NW,305,2.0,8.0,56,0.00,,,0.00,weatherlink.com 1.10,2013-10-24 22:02:00,
2013-10-24 18:17:00,46.2,34.0,29.83,NNE,23,4.0,6.0,62,0.00,,,0.00,weatherlink.com 1.10,2013-10-24 22:17:00,
2013-10-24 18:32:00,45.5,34.0,29.84,NW,314,0.0,8.0,65,0.00,,,0.00,weatherlink.com 1.10,2013-10-24 22:32:00,
2013-10-24 18:47:00,45.1,35.0,29.84,NNE,15,2.0,5.0,67,0.00,,,0.00,weatherlink.com 1.10,2013-10-24 22:47:00,
2013-10-24 19:02:00,44.7,35.0,29.85,NW,311,2.0,5.0,69,0.00,,,0.00,weatherlink.com 1.10,2013-10-24 23:02:00,
2013-10-24 19:17:00,44.4,36.0,29.85,NW,312,2.0,8.0,71,0.00,,,0.00,weatherlink.com 1.10,2013-10-24 23:17:00,
2013-10-24 19:32:00,44.0,36.0,29.86,West,272,2.0,5.0,73,0.00,,,0.00,weatherlink.com 1.10,2013-10-24 23:32:00,
2013-10-24 19:47:00,43.7,36.0,29.86,NNW,328,0.0,6.0,74,0.00,,,0.00,weatherlink.com 1.10,2013-10-24 23:47:00,
2013-10-24 20:02:00,43.5,36.0,29.87,WNW,295,0.0,7.0,76,0.00,,,0.00,weatherlink.com 1.10,2013-10-25 00:02:00,
2013-10-24 20:17:00,43.3,37.0,29.87,North,350,3.0,5.0,77,0.00,,,0.00,weatherlink.com 1.10,2013-10-25 00:17:00,
2013-10-24 20:32:00,43.0,37.0,29.87,NNW,339,1.0,5.0,78,0.00,,,0.00,weatherlink.com 1.10,2013-10-25 00:32:00,
2013-10-24 20:48:00,42.8,36.0,29.87,NE,41,2.0,3.0,78,0.00,,,0.00,weatherlink.com 1.10,2013-10-25 00:48:00,
2013-10-24 21:03:00,42.8,36.0,29.88,North,350,4.0,8.0,78,0.00,,,0.00,weatherlink.com 1.10,2013-10-25 01:03:00,
2013-10-24 21:18:00,42.7,36.0,29.88,West,280,2.0,11.0,78,0.00,,,0.00,weatherlink.com 1.10,2013-10-25 01:18:00,
2013-10-24 21:33:00,42.7,36.0,29.88,NW,305,3.0,6.0,78,0.00,,,0.00,weatherlink.com 1.10,2013-10-25 01:33:00,
2013-10-24 21:48:00,42.6,37.0,29.89,WNW,298,1.0,8.0,79,0.00,,,0.00,weatherlink.com 1.10,2013-10-25 01:48:00,
2013-10-24 22:03:00,41.9,37.0,29.89,NW,325,4.0,6.0,83,0.00,,,0.00,weatherlink.com 1.10,2013-10-25 02:03:00,
2013-10-24 22:18:00,41.5,37.0,29.89,North,359,1.0,9.0,84,0.00,,,0.00,weatherlink.com 1.10,2013-10-25 02:18:00,
2013-10-24 22:33:00,41.4,37.0,29.90,NNW,338,3.0,6.0,84,0.00,,,0.00,weatherlink.com 1.10,2013-10-25 02:33:00,
2013-10-24 22:48:00,41.3,37.0,29.90,WNW,295,0.0,6.0,84,0.00,,,0.00,weatherlink.com 1.10,2013-10-25 02:48:00,
2013-10-24 23:03:00,41.1,37.0,29.91,WNW,284,2.0,7.0,85,0.00,,,0.00,weatherlink.com 1.10,2013-10-25 03:03:00,
2013-10-24 23:18:00,41.0,37.0,29.91,WSW,250,4.0,5.0,85,0.00,,,0.00,weatherlink.com 1.10,2013-10-25 03:18:00,
2013-10-24 23:33:00,40.7,37.0,29.91,West,262,2.0,6.0,86,0.00,,,0.00,weatherlink.com 1.10,2013-10-25 03:33:00,
2013-10-24 23:48:00,40.4,37.0,29.91,WNW,300,2.0,6.0,86,0.00,,,0.00,weatherlink.com 1.10,2013-10-25 03:48:00,